Home > Weather > Emmen > Past weeks

Flag for Switzerland Past Weather in Emmen, Lucerne, Switzerland — Yesterday and Last 2 Weeks

Now
71 °F

Mild.


Feels Like: 70 °F
Forecast: 60 / 78 °F
Wind: 1 mph from West

Location: Giswil

Current Time: Jul 23, 2016 at 9:26:59 PM

Latest Report: Jul 23, 2016 at 8:00 PM


Visibility: N/A

Pressure: 30.03 "Hg

Humidity: 83%

Dew Point: 65 °F

Location of EmmenLocation

Past Weather in Emmen — Graph

°F

Emmen Temperature Yesterday

Maximum temperature yesterday: 77 °F (at 4:00 PM)
Minimum temperature yesterday: 64 °F (at 3:00 AM)
Average temperature yesterday: 68 °F

High & Low Weather Summary for the Past Weeks

 TemperatureHumidityPressure
High88 °F (Jul 20, 5:00 PM)100% (Jul 16, 5:00 AM)30.39 "Hg (Jul 16, 5:00 AM)
Low44 °F (Jul 16, 6:00 AM)38% (Jul 20, 4:00 PM)29.85 "Hg (Jul 10, 7:00 PM)
Average66 °F79%30.09 "Hg
* Reported Jul 8 8:00 PM — Jul 23 8:00 PM, Emmen, Weather by CustomWeather, © 2016

Note: Actual official high and low records may vary slightly from our data, if they occured in-between our weather recording intervals... More about our weather records

Advertising

Emmen Weather History for the Previous 24 Hours

Scroll right to see more
 ConditionsComfort  
Time TempWeatherWind HumidityBarometerVisibility
8:00 PM
Sat, Jul 23
71 °FMild.1 mph83%30.03 "HgN/A
7:00 PM71 °FMild.2 mph84%30.03 "HgN/A
6:00 PM71 °FMild.3 mph85%30.03 "HgN/A
5:00 PM70 °FMild.3 mph86%30.04 "HgN/A
4:00 PM72 °FMild.1 mph73%30.03 "HgN/A
3:00 PM73 °FMild.1 mph70%30.02 "HgN/A
2:00 PM73 °FMild.2 mph72%30.03 "HgN/A
1:00 PM73 °FMild.3 mph73%30.03 "HgN/A
12:00 PM72 °FMild.2 mph72%30.02 "HgN/A
11:00 AM71 °FMild.2 mph75%30.03 "HgN/A
10:00 AM70 °FMild.3 mph79%30.02 "HgN/A
9:00 AM67 °FMild.1 mph85%30.03 "HgN/A
8:00 AM65 °FMild.1 mph91%30.03 "HgN/A
7:00 AM63 °FMild.2 mph99%30.03 "HgN/A
6:00 AM62 °FCool.1 mph99%30.04 "HgN/A
5:00 AM61 °FCool.2 mph99%30.05 "HgN/A
4:00 AM61 °FCool.1 mph99%30.04 "HgN/A
3:00 AM62 °FCool.2 mph99%30.04 "HgN/A
2:00 AM62 °FCool.1 mph99%30.04 "HgN/A
1:00 AM61 °FCool.1 mph99%30.04 "HgN/A
12:00 AM63 °FMild.1 mph99%30.03 "HgN/A
11:00 PM
Fri, Jul 22
64 °FMild.1 mph100%30.03 "HgN/A
10:00 PM65 °FMild.1 mph99%30.03 "HgN/A
9:00 PM66 °FMild.1 mph98%30.02 "HgN/A
Weather by CustomWeather, © 2016

See weather overviewHow to use our weather pages